This demonstration page uses our WeatherBlox Daily Observations layout. Learn more.

Left ArrowRight Arrow

Hourly Observations for August 16, 2018

Temp ( °F °C ) Dew Point ( °F °C ) Humidity (%) Winds ( mph kmh ) Pressure ( in mb ) Visibility ( mi km ) Precip ( " mm )
12:15 am 00:15 Mostly Cloudy 69 20.8 69 20.8 100 100 S 7 11 29.97 1015 7 11 0.00 0.00
12:35 am 00:35 Mostly Cloudy 69 20.7 69 20.7 100 100 S 8 13 29.97 1015 7 11 0.00 0.00
12:55 am 00:55 Mostly Cloudy 68 20.1 68 20.1 100 100 S 12 19 30.00 1016 7 11 0.00 0.00
1:15 am 01:15 Cloudy 67 19.6 67 19.6 100 100 S 8 13 29.97 1015 10 16 0.00 0.00
1:35 am 01:35 Cloudy 67 19.5 67 19.5 100 100 S 8 13 29.97 1015 10 16 0.00 0.00
1:55 am 01:55 Cloudy 67 19.3 67 19.3 100 100 S 8 13 29.97 1015 10 16 0.00 0.00
2:15 am 02:15 Cloudy 67 19.4 67 19.4 100 100 S 7 11 29.97 1015 10 16 0.00 0.00
2:35 am 02:35 Cloudy 67 19.5 67 19.5 100 100 S 6 9 29.97 1015 10 16 0.00 0.00
2:55 am 02:55 Cloudy 67 19.5 67 19.5 100 100 S 7 11 29.97 1015 7 11 0.00 0.00
3:15 am 03:15 Cloudy with Rain 67 19.5 67 19.5 100 100 S 8 13 29.97 1015 7 11 0.00 0.00
3:35 am 03:35 Cloudy with Light Rain 67 19.4 67 19.4 100 100 S 7 11 29.97 1015 7 11 0.00 0.00
3:55 am 03:55 Cloudy with Rain 67 19.5 67 19.5 100 100 S 8 13 29.97 1015 7 11 0.00 0.00
4:15 am 04:15 Cloudy with Light Rain 67 19.5 67 19.5 100 100 S 7 11 29.97 1015 5 8 0.06 1.52
4:35 am 04:35 Cloudy 67 19.5 67 19.5 100 100 S 8 13 29.97 1015 10 16 0.06 1.52
4:55 am 04:55 Cloudy with Rain 67 19.5 67 19.5 100 100 S 5 7 29.97 1015 10 16 0.06 1.52
5:15 am 05:15 Cloudy with Rain 67 19.5 67 19.5 100 100 S 7 11 29.97 1015 5 8 0.03 0.76
5:35 am 05:35 Cloudy with Light Rain 67 19.5 67 19.5 100 100 S 8 13 29.97 1015 7 11 0.06 1.52
5:55 am 05:55 Cloudy with Light Rain 67 19.5 67 19.5 100 100 S 9 15 29.97 1015 10 16 0.07 1.78
6:15 am 06:15 Cloudy 67 19.5 67 19.5 100 100 S 7 11 29.97 1015 10 16 0.00 0.00
6:35 am 06:35 Cloudy 67 19.5 67 19.5 100 100 S 5 7 29.97 1015 7 11 0.00 0.00
6:55 am 06:55 Cloudy 67 19.5 67 19.5 100 100 S 6 9 29.97 1015 7 11 0.00 0.00
7:15 am 07:15 Cloudy 67 19.6 67 19.6 100 100 S 7 11 29.97 1015 7 11 0.00 0.00
7:35 am 07:35 Cloudy 67 19.7 67 19.7 100 100 S 6 9 29.97 1015 7 11 0.00 0.00
7:55 am 07:55 Cloudy 68 19.8 68 19.8 100 100 S 6 9 30.00 1016 7 11 0.00 0.00
8:15 am 08:15 Cloudy 68 20 68 20 100 100 S 6 9 30.00 1016 7 11 0.00 0.00
8:35 am 08:35 Cloudy 68 20 68 20 100 100 S 5 7 30.00 1016 7 11 0.00 0.00
8:55 am 08:55 Cloudy with Mist and Fog 68 20.1 68 20.1 100 100 S 6 9 30.00 1016 5 8 0.00 0.00
9:15 am 09:15 Cloudy with Mist and Fog 69 20.3 69 20.3 100 100 S 5 7 30.00 1016 5 8 0.00 0.00
9:35 am 09:35 Cloudy with Mist and Fog 69 20.7 69 20.7 100 100 S 6 9 30.00 1016 5 8 0.00 0.00
9:55 am 09:55 Cloudy with Mist and Fog 70 20.9 70 20.9 100 100 SSW 8 13 30.00 1016 5 8 0.00 0.00
10:15 am 10:15 Cloudy with Mist and Fog 70 20.9 70 20.9 100 100 S 6 9 30.00 1016 5 8 0.00 0.00
10:35 am 10:35 Cloudy with Mist and Fog 70 21.2 70 21.2 100 100 S 8 13 29.97 1015 5 8 0.00 0.00
10:55 am 10:55 Cloudy with Mist and Fog 70 21.3 70 21.3 100 100 SSW 7 11 29.97 1015 5 8 0.00 0.00
11:15 am 11:15 Cloudy with Light Rain 71 21.5 71 21.5 100 100 S 6 9 29.97 1015 5 8 0.00 0.00
11:35 am 11:35 Cloudy with Light Rain 71 21.7 71 21.7 100 100 SSW 7 11 29.97 1015 4 6 0.00 0.00
11:55 am 11:55 Cloudy with Rain 71 21.6 71 21.6 100 100 SSW 6 9 29.97 1015 3 4 0.02 0.51
12:15 pm 12:15 Cloudy with Drizzle 72 22 72 22 100 100 SSW 8 13 29.97 1015 5 8 0.01 0.25
12:35 pm 12:35 Cloudy with Drizzle 72 22.1 72 22.1 100 100 SSW 7 11 29.97 1015 10 16 0.01 0.25
12:55 pm 12:55 Cloudy 72 22.4 72 22.2 99 99 SSW 13 20 29.97 1015 10 16 0.01 0.25
1:15 pm 13:15 Cloudy 73 22.7 73 22.6 99 99 SW 12 19 29.97 1015 10 16 0.00 0.00
1:35 pm 13:35 Cloudy 74 23.1 73 22.8 98 98 SW 12 19 29.97 1015 10 16 0.00 0.00
1:55 pm 13:55 Cloudy 74 23.3 73 22.8 97 97 SW 9 15 29.97 1015 10 16 0.00 0.00
2:15 pm 14:15 Cloudy 73 23 73 22.6 98 98 SSW 10 17 29.97 1015 10 16 0.00 0.00
2:35 pm 14:35 Cloudy 75 23.9 74 23.1 95 95 SW 9 15 29.97 1015 10 16 0.00 0.00
2:55 pm 14:55 Cloudy 77 24.8 74 23.3 91 91 WSW 12 19 29.97 1015 10 16 0.00 0.00
3:15 pm 15:15 Cloudy 76 24.7 73 23 90 90 SW 10 17 29.97 1015 10 16 0.00 0.00
3:35 pm 15:35 Cloudy with Rain 76 24.4 74 23.4 94 94 W 6 9 29.94 1014 4 6 0.01 0.25
3:55 pm 15:55 Cloudy with Heavy Rain 75 24 75 23.8 99 99 Calm 29.94 1014 2 3 0.05 1.27
4:15 pm 16:15 Mostly Cloudy 77 24.8 75 24 95 95 SW 5 7 29.94 1014 7 11 0.00 0.00
4:35 pm 16:35 Mostly Cloudy 76 24.5 75 23.7 95 95 SSW 3 6 29.94 1014 10 16 0.00 0.00
4:55 pm 16:55 Cloudy 76 24.5 74 23.5 94 94 SW 6 9 29.94 1014 10 16 0.00 0.00
5:15 pm 17:15 Mostly Cloudy with Nearby Thunderstorms 76 24.5 74 23.4 94 94 SSW 6 9 29.94 1014 10 16 0.00 0.00
5:35 pm 17:35 Mostly Cloudy 76 24.3 74 23.3 94 94 SW 7 11 29.94 1014 7 11 0.00 0.00
5:55 pm 17:55 Mostly Cloudy 76 24.7 74 23.6 94 94 SSW 10 17 29.94 1014 10 16 0.00 0.00
6:15 pm 18:15 Partly Cloudy 76 24.2 74 23.5 96 96 SSW 8 13 29.94 1014 7 11 0.00 0.00
6:35 pm 18:35 Sunny 76 24.3 75 23.7 96 96 WSW 5 7 29.94 1014 7 11 0.00 0.00
6:55 pm 18:55 Partly Cloudy 76 24.6 74 23.5 94 94 SW 8 13 29.94 1014 10 16 0.00 0.00
7:15 pm 19:15 Mostly Cloudy 76 24.2 74 23.1 94 94 WSW 6 9 29.94 1014 10 16 0.00 0.00
7:35 pm 19:35 Mostly Cloudy 76 24.5 74 23.3 93 93 SW 5 7 29.94 1014 10 16 0.00 0.00
7:55 pm 19:55 Partly Cloudy 75 24.1 74 23.1 94 94 SSW 3 6 29.94 1014 10 16 0.00 0.00
8:15 pm 20:15 Sunny with Nearby Thunderstorms 74 23.6 73 23 96 96 SSW 3 6 29.94 1014 10 16 0.00 0.00
8:35 pm 20:35 Sunny with Nearby Thunderstorms 73 22.8 73 22.6 99 99 S 3 6 29.94 1014 10 16 0.00 0.00
8:55 pm 20:55 Partly Cloudy 72 22.2 72 22.2 100 100 Calm 29.94 1014 10 16 0.00 0.00
9:15 pm 21:15 Clear 71 21.6 71 21.6 100 100 S 5 7 29.94 1014 10 16 0.00 0.00
9:35 pm 21:35 Clear 71 21.6 71 21.6 100 100 S 5 7 29.94 1014 7 11 0.00 0.00
9:55 pm 21:55 Clear 71 21.6 71 21.6 100 100 S 3 6 29.97 1015 7 11 0.00 0.00
10:15 pm 22:15 Partly Cloudy with Mist and Fog 70 21.2 70 21.2 100 100 Calm 29.97 1015 5 8 0.00 0.00
10:35 pm 22:35 Cloudy with Mist and Fog 71 21.6 71 21.6 100 100 S 3 6 29.97 1015 4 6 0.00 0.00
10:55 pm 22:55 Partly Cloudy with Mist and Fog 71 21.7 71 21.7 100 100 S 5 7 29.97 1015 3 5 0.00 0.00
11:15 pm 23:15 Clear with Mist and Fog 72 22 72 22 100 100 SSW 6 9 29.97 1015 5 8 0.00 0.00
11:35 pm 23:35 Mostly Cloudy with Light Rain 73 22.5 73 22.5 100 100 SSW 7 11 29.97 1015 5 8 0.00 0.00
11:55 pm 23:55 Partly Cloudy with Mist and Fog 72 22.4 72 22.4 100 100 SW 6 9 29.97 1015 5 8 0.00 0.00

Powered by AerisWeather